Oxford, CT

1:14 PM EDT on May 21, 2018 (GMT -0400)
Waterbury-Oxford

Weather History for KOXC - September, 2013

Change the Weather History Date:

Sunday, September 1, 2013

  Actual Average Record
Temperature  
Mean Temperature 74 °F -  
Max Temperature 78 °F 73 °F 89 °F (2010)
Min Temperature 71 °F 55 °F 46 °F (2017)
Cooling Degree Days 10    
Growing Degree Days 24 (Base 50)    
Moisture  
Dew Point 70 °F    
Average Humidity 88    
Maximum Humidity 94    
Minimum Humidity 78    
Precipitation  
Precipitation 0.00 in - - ()
Sea Level Pressure  
Sea Level Pressure 29.88 in    
Wind  
Wind Speed 3 mph (South)    
Max Wind Speed 9 mph    
Max Gust Speed -    
Visibility 6 miles    
Events Rain , Thunderstorm    
Averages and records for this station are not official NWS values.
T = Trace of Precipitation, MM = Missing Value Source: NWS Daily Summary

Daily Weather History Graph

Daily Weather History Graph

Search for Another Location

Airport or City:

Astronomy

Sep. 01, 2013 Rise Set
Actual Time 6:18 AM EDT 7:25 PM EDT
Civil Twilight 5:50 AM EDT 7:53 PM EDT
Nautical Twilight 5:16 AM EDT 8:27 PM EDT
Astronomical Twilight 4:40 AM EDT 9:02 PM EDT
Moon 2:36 AM EDT (9/1) 5:02 PM EDT (9/1)
Length of Visible Light 14h 03m
Length of Day
13h 06m
Waning Crescent, 14% of the Moon is Illuminated
Sep 1
Waning Crescent
Sep 5
New
Sep 12
First Quarter
Sep 19
Full
Sep 26
Last Quarter

Hourly Weather History & Observations

Time (EDT) Temp. Dew Point Humidity Pressure Visibility Wind Dir Wind Speed Gust Speed Precip Events Conditions
12:15 AM 73.4 °F 69.8 °F 88% 29.88 in 7.0 mi SSW 3.5 mph - N/A   Scattered Clouds
12:35 AM 73.4 °F 69.8 °F 88% 29.88 in 7.0 mi Calm Calm - N/A   Overcast
12:55 AM 73.4 °F 69.8 °F 88% 29.87 in 7.0 mi SSW 3.5 mph - N/A   Mostly Cloudy
1:15 AM 71.6 °F 69.8 °F 94% 29.86 in 7.0 mi SSW 4.6 mph - N/A   Partly Cloudy
1:35 AM 71.6 °F 69.8 °F 94% 29.87 in 7.0 mi SSW 4.6 mph - N/A   Scattered Clouds
1:55 AM 71.6 °F 69.8 °F 94% 29.87 in 7.0 mi South 4.6 mph - N/A   Mostly Cloudy
2:15 AM 71.6 °F 68.0 °F 88% 29.88 in 7.0 mi South 3.5 mph - N/A   Mostly Cloudy
2:35 AM 71.6 °F 68.0 °F 88% 29.87 in 7.0 mi Calm Calm - N/A   Mostly Cloudy
2:55 AM 71.6 °F 68.0 °F 88% 29.86 in 6.0 mi Calm Calm - N/A   Scattered Clouds
3:15 AM 71.6 °F 68.0 °F 88% 29.86 in 6.0 mi Calm Calm - N/A   Clear
3:35 AM 71.6 °F 68.0 °F 88% 29.86 in 5.0 mi Calm Calm - N/A   Mostly Cloudy
3:55 AM 71.6 °F 68.0 °F 88% 29.86 in 5.0 mi Calm Calm - N/A   Overcast
4:15 AM 71.6 °F 68.0 °F 88% 29.86 in 5.0 mi SE 3.5 mph - N/A   Overcast
4:35 AM 71.6 °F 68.0 °F 88% 29.86 in 5.0 mi SSE 3.5 mph - N/A   Overcast
4:55 AM 71.6 °F 68.0 °F 88% 29.87 in 5.0 mi Calm Calm - N/A   Overcast
5:15 AM 71.6 °F 68.0 °F 88% 29.87 in 5.0 mi Calm Calm - N/A   Overcast
5:35 AM 71.6 °F 68.0 °F 88% 29.88 in 5.0 mi Calm Calm - N/A   Overcast
5:45 AM 71.6 °F 68.0 °F 88% 29.88 in 2.0 mi Calm Calm - N/A   Overcast
5:55 AM 71.6 °F 69.8 °F 94% 29.88 in 2.0 mi Calm Calm - N/A Rain , Thunderstorm Thunderstorms and Rain
6:45 AM 71.6 °F 69.8 °F 94% 29.89 in 3.0 mi Calm Calm - N/A Thunderstorm Thunderstorm
7:45 AM 71.6 °F 68.0 °F 88% 29.90 in 2.0 mi Calm Calm - N/A   Overcast
8:50 AM 73.4 °F 69.8 °F 88% 29.90 in 2.0 mi Calm Calm - N/A   Overcast
9:45 AM 73.4 °F 69.8 °F 88% 29.90 in 4.0 mi Calm Calm - N/A   Overcast
10:45 AM 75.2 °F 71.6 °F 89% 29.90 in 5.0 mi SSW 8.1 mph - N/A   Overcast
11:45 AM 77.0 °F 71.6 °F 83% 29.91 in 5.0 mi South 6.9 mph - N/A   Haze
12:45 PM 77.0 °F 71.6 °F 83% 29.90 in 6.0 mi South 8.1 mph - N/A   Haze
1:45 PM 77.0 °F 71.6 °F 83% 29.89 in 6.0 mi SSW 6.9 mph - N/A   Haze
2:02 PM 77.0 °F 75.2 °F 94% 29.89 in 6.0 mi SSW 6.9 mph - N/A   Haze
2:45 PM 77.0 °F 71.6 °F 83% 29.89 in 6.0 mi SSE 6.9 mph - N/A   Haze
3:45 PM 78.8 °F 71.6 °F 78% 29.88 in 6.0 mi South 9.2 mph - N/A   Haze
4:45 PM 78.8 °F 71.6 °F 78% 29.87 in 7.0 mi South 9.2 mph - N/A   Mostly Cloudy
5:45 PM 77.0 °F 71.6 °F 83% 29.87 in 7.0 mi South 8.1 mph - N/A   Scattered Clouds
6:45 PM 75.2 °F 69.8 °F 83% 29.88 in 7.0 mi South 8.1 mph - N/A   Scattered Clouds
7:45 PM 73.4 °F 69.8 °F 88% 29.87 in 5.0 mi SSE 5.8 mph - N/A   Haze
8:11 PM 73.4 °F 69.8 °F 88% 29.88 in 5.0 mi South 5.8 mph - N/A   Haze
9:15 PM 73.4 °F 69.8 °F 88% 29.90 in 7.0 mi SSE 5.8 mph - N/A   Overcast
9:35 PM 73.4 °F 69.8 °F 88% 29.90 in 7.0 mi South 6.9 mph - N/A   Overcast
9:55 PM 73.4 °F 69.8 °F 88% 29.89 in 7.0 mi South 6.9 mph - N/A   Overcast
10:15 PM 73.4 °F 69.8 °F 88% 29.89 in 5.0 mi South 5.8 mph - N/A   Mostly Cloudy
10:55 PM 71.6 °F 69.8 °F 94% 29.89 in 5.0 mi South 6.9 mph - N/A   Overcast
11:15 PM 71.6 °F 69.8 °F 94% 29.88 in 5.0 mi SSE 6.9 mph - N/A   Overcast
11:35 PM 71.6 °F 69.8 °F 94% 29.88 in 5.0 mi South 5.8 mph - N/A   Overcast
11:55 PM 71.6 °F 69.8 °F 94% 29.88 in 5.0 mi South 6.9 mph - N/A   Overcast